Meteo Giornale » Osservazioni meteo Stati Uniti (USA) » Buffalo

ore: 12:35 - Osservazioni Meteo Buffalo
Lat. 45° 10' N Lon. 93° 51' W Alt. 295 metri s.l.m.

sereno

28 °C

Sereno

Temp. 24 Ore

19 °C

29 °C

Nord/NOvest

11.1 Km/h

Dew point 21 °C

Umidità 65 %

Visibilità  10 Km

Il sole sorge alle ore 06:36

Il sole tramonta alle ore 19:54

Data e Ora Cielo e Fenomeni T °C DP °C Um. % Pres. hPa Vis. km Vento km/h
Oggi h: 12:35 sereno Sereno 28 21 65 1011 10 N/NO 11.1
Oggi h: 12:15 sereno Sereno 28 21 65 1011 10 NO 9.3
Oggi h: 11:55 sereno Sereno 27 22 74 1011 10 N/NE 9.3
Oggi h: 11:35 coperto_pioggia Pioggia 27 22 74 1011 14 N/NO 13
Oggi h: 11:15 nuvoloso Nuvoloso 26 21 73 1011 10 NO 11.1
Oggi h: 10:55 sereno Sereno 26 22 78 1011 10 N/NO 13
Oggi h: 10:35 nuvoloso Nuvoloso 26 22 78 1011 10 N 16.7
Oggi h: 10:15 poco_nuvoloso Poco Nuvoloso 25 23 88 1010 10 N 14.8
Oggi h: 09:55 nuvoloso Nuvoloso 25 22 83 1010 10 N/NO 13
Oggi h: 09:35 nuvoloso Nuvoloso 25 23 88 1010 10 NO 13
Oggi h: 09:15 sereno Sereno 25 23 88 1010 14 NO 13
Oggi h: 08:55 sereno Sereno 24 22 88 1009 10 O 9.3
Oggi h: 08:35 sereno Sereno 23 22 94 1009 14 O/NO 7.4
Oggi h: 08:15 poco_nuvoloso Poco Nuvoloso 22 22 100 1009 11 O/SO 7.4
Oggi h: 07:55 foschia Foschia 21 21 100 1009 8 SO 7.4
Oggi h: 07:35 foschia Foschia 20 20 100 1009 3 N 0
Oggi h: 07:15 nebbia Nebbia 20 20 100 1008 2 N 0
Oggi h: 06:55 nebbia Nebbia 19 19 100 1008 2 N 0
Oggi h: 06:35 nebbia Nebbia 20 20 100 1007 2 N 0
Oggi h: 06:15 foschia Foschia 20 20 100 1007 2 N 0
Oggi h: 05:55 foschia precipitazioni Foschia 20 20 100 1007 2 N 0
Oggi h: 05:35 foschia Foschia 20 20 100 1007 6 N 0
Oggi h: 05:15 foschia Foschia 21 21 100 1007 6 N 0
Oggi h: 04:55 foschia Foschia 21 21 100 1007 8 N 5.5
Oggi h: 04:35 poco_nuvoloso Poco Nuvoloso 21 21 100 1007 11 N 5.5
Oggi h: 04:15 foschia Foschia 21 21 100 1007 10 S 7.4
Oggi h: 03:55 sereno Sereno 21 21 100 1007 13 N 5.5
Oggi h: 03:35 sereno Sereno 21 21 100 1007 14 S/SO 7.4
Oggi h: 03:15 sereno Sereno 22 21 94 1007 14 S 7.4
Oggi h: 02:55 poco_nuvoloso Poco Nuvoloso 22 21 94 1007 10 N 5.5
Oggi h: 02:35 nuvoloso Nuvoloso 22 21 94 1007 10 S 7.4
Oggi h: 02:15 molto_nuvoloso Molto Nuvoloso 22 22 100 1007 10 S 9.3
Oggi h: 01:55 nuvoloso Nuvoloso 22 22 100 1007 10 S 9.3
Oggi h: 01:35 molto_nuvoloso Molto Nuvoloso 23 22 94 1007 10 S/SE 11.1
Oggi h: 01:15 nuvoloso Nuvoloso 23 22 94 1007 10 S/SE 14.8
Oggi h: 00:55 nuvoloso Nuvoloso 23 22 94 1007 10 S/SE 14.8
Oggi h: 00:35 coperto Coperto 23 22 94 1007 10 S 11.1
Oggi h: 00:15 coperto Coperto 23 21 88 1007 10 S/SE 14.8
Ieri h: 23:55 coperto Coperto 23 21 88 1008 10 S/SE 13
Ieri h: 23:35 coperto Coperto 23 21 88 1008 10 S/SE 13
Ieri h: 23:15 molto_nuvoloso Molto Nuvoloso 24 21 83 1008 10 S/SE 9.3
Ieri h: 22:55 molto_nuvoloso Molto Nuvoloso 24 21 83 1008 10 S/SE 13
Ieri h: 22:35 molto_nuvoloso Molto Nuvoloso 24 21 83 1008 10 S/SE 13
Ieri h: 22:15 molto_nuvoloso Molto Nuvoloso 24 21 83 1008 10 S/SE 13
Ieri h: 21:55 coperto Coperto 25 21 78 1008 10 S/SE 13
Ieri h: 21:35 coperto Coperto 25 21 78 1008 10 S/SE 13
Ieri h: 21:15 coperto Coperto 26 21 73 1008 10 S/SE 13
Ieri h: 20:55 molto_nuvoloso Molto Nuvoloso 26 21 73 1008 10 S/SE 13
Ieri h: 20:35 poco_nuvoloso Poco Nuvoloso 26 22 78 1008 10 S/SE 9.3
Ieri h: 20:15 nuvoloso Nuvoloso 25 23 88 1008 10 SE 9.3
Ieri h: 19:55 molto_nuvoloso Molto Nuvoloso 26 23 83 1007 10 E 9.3
Ieri h: 19:35 coperto Coperto 27 23 78 1007 10 E 9.3
Ieri h: 19:15 coperto Coperto 27 23 78 1007 10 E/SE 9.3
Ieri h: 18:55 nuvoloso Nuvoloso 28 23 74 1007 10 E/SE 13
Ieri h: 18:35 sereno Sereno 28 23 74 1007 10 E 14.8
Ieri h: 18:15 sereno Sereno 28 23 74 1007 10 E/SE 16.7
Ieri h: 17:55 sereno Sereno 28 23 74 1007 10 E/SE 14.8
Ieri h: 17:35 sereno Sereno 29 23 70 1007 10 E/SE 11.1
Ieri h: 17:15 sereno Sereno 28 23 74 1007 10 E/SE 13
Ieri h: 16:55 poco_nuvoloso Poco Nuvoloso 28 23 74 1007 10 E/SE 11.1
Ieri h: 16:35 nuvoloso Nuvoloso 28 23 74 1007 10 E/SE 20.3
Ieri h: 16:15 nuvoloso Nuvoloso 29 23 70 1008 10 E/SE 14.8
Ieri h: 15:55 nuvoloso Nuvoloso 28 23 74 1008 10 E 9.3
Ieri h: 15:35 molto_nuvoloso Molto Nuvoloso 28 23 74 1008 10 E 20.3
Ieri h: 15:15 poco_nuvoloso Poco Nuvoloso 27 23 78 1008 10 E/SE 16.7
Ieri h: 14:55 poco_nuvoloso Poco Nuvoloso 27 22 74 1008 10 E 18.5
Ieri h: 14:35 sereno Sereno 27 22 74 1008 10 E 18.5
Ieri h: 14:15 poco_nuvoloso Poco Nuvoloso 26 22 78 1008 10 E 18.5
Ieri h: 13:55 poco_nuvoloso Poco Nuvoloso 26 22 78 1009 10 E 20.3
Ieri h: 13:35 molto_nuvoloso Molto Nuvoloso 25 22 83 1009 10 E 16.7